[[{"header":{"parameterUnit":"m.s-1","parameterCategory":1,"la1":30.2992,"la2":30.254,"lo1":-89.0895,"lo2":-89.0443,"dy":0.0025,"dx":0.0025,"nx":19,"ny":19,"refTime":"2026-03-18T09:00:00:Z","depth":0,"parameterNumber":2,"parameterNumberName":"U-component_of_WINDS"},"data":[0,0,0,-0.6568,-0.6571,-0.6704,-0.6705,-0.686,-0.6861,0,0,0,0,0,0,0,0,0,0,0,-0.6518,-0.6519,-0.6568,-0.6571,-0.6704,-0.6705,-0.686,-0.6861,0,0,0,0,0,0,0,0,0,0,0,-0.6518,-0.6519,-0.6519,-0.6572,-0.6704,-0.6705,-0.6859,-0.6765,0,0,0,0,0,0,0,0,0,0,-0.6638,-0.6581,-0.6518,-0.652,-0.6572,-0.6704,-0.6705,-0.676,-0.6771,-0.6793,0,-0.6808,0,-0.6837,-0.687,-0.6871,0,0,0,-0.658,-0.6572,-0.6618,-0.652,-0.6573,-0.6703,-0.6646,-0.6766,-0.6778,-0.6806,-0.681,-0.6816,-0.6839,-0.6871,-0.6872,-0.6967,-0.6967,0,0,-0.6572,-0.6537,-0.661,-0.6625,-0.6601,-0.6642,-0.665,-0.6773,-0.6776,-0.6811,-0.682,-0.6842,-0.6872,-0.6873,-0.6967,-0.6967,0,0,0,-0.6545,-0.6531,-0.6574,-0.6618,-0.6643,-0.6646,-0.6655,-0.6771,-0.6788,-0.6822,-0.6844,-0.6873,-0.6875,-0.6967,-0.6967,-0.6934,0,0,0,-0.6541,-0.6516,-0.657,-0.655,-0.664,-0.6708,-0.665,-0.6779,-0.6794,-0.6843,-0.6873,-0.6876,-0.6967,-0.6967,-0.6935,-0.6925,0,0,0,-0.6513,-0.6513,-0.6528,-0.6548,-0.6604,-0.6707,-0.6731,-0.6783,-0.6807,-0.6871,-0.6876,-0.6967,-0.6967,-0.6936,-0.6926,-0.6939,0,0,0,-0.6473,-0.6498,-0.6527,-0.6563,-0.6602,-0.6685,-0.6731,-0.6795,-0.6846,-0.6874,-0.6967,-0.6967,-0.6936,-0.6927,-0.694,-0.6944,-0.6942,0,0,-0.6485,-0.6498,-0.6522,-0.6552,-0.662,-0.6668,-0.6732,-0.6813,-0.6853,-0.6927,-0.693,-0.6934,-0.6926,-0.6939,-0.6944,-0.6942,0,0,0,-0.6513,-0.653,-0.6556,-0.6602,-0.6663,-0.6715,-0.679,-0.682,-0.6884,-0.6883,-0.6944,-0.694,-0.6949,-0.6953,-0.6951,-0.6962,-0.6967,-0.6967,-0.6967,-0.6479,-0.6527,-0.6569,-0.6633,-0.6677,-0.6753,-0.6794,-0.6848,-0.6884,-0.6897,-0.692,-0.6917,-0.6919,-0.6918,-0.6929,-0.6926,-0.6926,-0.6926,-0.6925,-0.65,-0.6531,-0.6577,-0.6635,-0.6686,-0.6736,-0.6811,-0.6834,-0.6889,-0.6904,-0.6914,-0.6926,-0.6915,-0.6927,-0.6923,-0.6924,-0.6924,-0.6924,-0.6924,-0.6483,-0.6506,-0.6541,-0.6612,-0.6661,-0.6726,-0.6775,-0.6821,-0.6864,-0.6874,-0.6903,-0.6903,-0.691,-0.6884,-0.6884,-0.6884,-0.6884,-0.6884,-0.6884,-0.6451,-0.6491,-0.6527,-0.6593,-0.6629,-0.6681,-0.6757,-0.6794,-0.6846,-0.6876,-0.6876,-0.6911,-0.6905,-0.6902,-0.6884,-0.6884,-0.6884,-0.6884,-0.6884,-0.6455,-0.6461,-0.6515,-0.655,-0.6632,-0.6679,-0.6735,-0.6806,-0.6843,-0.6866,-0.6899,-0.6887,-0.6904,-0.6906,-0.6904,-0.6888,-0.6888,-0.6888,-0.6888,-0.644,-0.6453,-0.6519,-0.6572,-0.6629,-0.6685,-0.6747,-0.6807,-0.6871,-0.6897,-0.6906,-0.6907,-0.6907,-0.6925,-0.6926,-0.6925,-0.6915,-0.6915,-0.6915,-0.6445,-0.6465,-0.6508,-0.6568,-0.6636,-0.6693,-0.6753,-0.6813,-0.6887,-0.6917,-0.6918,-0.6917,-0.692,-0.6919,-0.6949,-0.6949,-0.6949,0,0]},{"header":{"parameterUnit":"m.s-1","parameterCategory":1,"la1":30.2992,"la2":30.254,"lo1":-89.0895,"lo2":-89.0443,"dy":0.0025,"dx":0.0025,"nx":19,"ny":19,"refTime":"2026-03-18T09:00:00:Z","depth":0,"parameterNumber":3,"parameterNumberName":"V-component_of_WINDS"},"data":[0,0,0,-1.0522,-1.0522,-1.0499,-1.0499,-1.0482,-1.0482,0,0,0,0,0,0,0,0,0,0,0,-1.0536,-1.0536,-1.0522,-1.0522,-1.0499,-1.0499,-1.0482,-1.0482,0,0,0,0,0,0,0,0,0,0,0,-1.0536,-1.0536,-1.0536,-1.0522,-1.0499,-1.0499,-1.0482,-1.0495,0,0,0,0,0,0,0,0,0,0,-1.0515,-1.0534,-1.0536,-1.0536,-1.0522,-1.0499,-1.0499,-1.0496,-1.0494,-1.0498,0,-1.0502,0,-1.0492,-1.0482,-1.0482,0,0,0,-1.0517,-1.0535,-1.0523,-1.0536,-1.0521,-1.0499,-1.0508,-1.0495,-1.0493,-1.0496,-1.0502,-1.0501,-1.0492,-1.0482,-1.0482,-1.0518,-1.0519,0,0,-1.0518,-1.0535,-1.0524,-1.0522,-1.0526,-1.0509,-1.0507,-1.0494,-1.0501,-1.0502,-1.05,-1.0492,-1.0482,-1.0482,-1.0518,-1.0518,0,0,0,-1.0525,-1.0536,-1.0524,-1.0523,-1.0518,-1.0508,-1.0507,-1.0502,-1.0496,-1.05,-1.0491,-1.0482,-1.0482,-1.0517,-1.0518,-1.0555,0,0,0,-1.0525,-1.054,-1.0525,-1.0535,-1.0519,-1.051,-1.0515,-1.0497,-1.0495,-1.0491,-1.0482,-1.0482,-1.0517,-1.0518,-1.0553,-1.057,0,0,0,-1.0535,-1.0541,-1.0541,-1.0536,-1.0527,-1.0509,-1.0503,-1.0496,-1.049,-1.0482,-1.0482,-1.0517,-1.0518,-1.0552,-1.0567,-1.0585,0,0,0,-1.055,-1.0574,-1.0541,-1.0565,-1.0528,-1.0533,-1.0503,-1.0506,-1.0503,-1.0482,-1.0517,-1.0518,-1.0551,-1.0565,-1.0583,-1.0603,-1.0613,0,0,-1.0589,-1.0579,-1.0591,-1.0562,-1.0577,-1.0535,-1.0556,-1.0537,-1.052,-1.052,-1.0521,-1.0554,-1.0567,-1.0585,-1.0664,-1.0672,0,0,0,-1.061,-1.0619,-1.0619,-1.0618,-1.0605,-1.0595,-1.0571,-1.0564,-1.0563,-1.0524,-1.0565,-1.0572,-1.0582,-1.0591,-1.0598,-1.0605,-1.0523,-1.0523,-1.0523,-1.0691,-1.0669,-1.0688,-1.0664,-1.0663,-1.0639,-1.0636,-1.0623,-1.06,-1.0611,-1.061,-1.0661,-1.0672,-1.0677,-1.0685,-1.0619,-1.062,-1.062,-1.062,-1.0747,-1.0756,-1.0727,-1.0736,-1.0713,-1.0719,-1.0698,-1.0682,-1.0685,-1.0659,-1.0667,-1.064,-1.0687,-1.0693,-1.0622,-1.0622,-1.0622,-1.0621,-1.0621,-1.0797,-1.0798,-1.079,-1.0786,-1.0787,-1.0761,-1.0766,-1.0745,-1.0725,-1.0733,-1.073,-1.073,-1.0727,-1.0733,-1.0733,-1.0734,-1.0734,-1.0734,-1.0734,-1.0852,-1.0842,-1.0848,-1.0837,-1.0834,-1.0828,-1.0805,-1.0802,-1.0793,-1.0777,-1.0777,-1.0754,-1.0695,-1.0681,-1.0737,-1.0736,-1.0736,-1.0735,-1.0735,-1.0916,-1.0899,-1.0909,-1.0907,-1.0893,-1.0895,-1.0868,-1.0864,-1.0858,-1.0862,-1.0838,-1.0798,-1.0785,-1.078,-1.0768,-1.0842,-1.0842,-1.0842,-1.0842,-1.0959,-1.0951,-1.0957,-1.0955,-1.095,-1.0927,-1.0941,-1.0924,-1.0904,-1.09,-1.0886,-1.0869,-1.0864,-1.0854,-1.0847,-1.0835,-1.0925,-1.0925,-1.0925,-1.0997,-1.0988,-1.1003,-1.0984,-1.0972,-1.0963,-1.0975,-1.0974,-1.0948,-1.0928,-1.0896,-1.0892,-1.0864,-1.0856,-1.0835,-1.0824,-1.0803,0,0]}]]